Location: Aragnouet
(42.7874°N, 0.2165°E)
Time: 00:19:14
(UTC+00:00)

Resurs 01 Rocket - Pass Details

Date: 09 April 2020
Orbit: 635 x 644 km, 98.0° (Epoch: 02 June)

Event Time Altitude Azimuth Distance (km) Brightness Sun altitude
Exits shadow 19:17:46 11° 102° (ESE) 1,990 3.5 -8.4°
Maximum altitude 19:20:26 17° 64° (ENE) 1,618 3.3 -8.9°
Drops below altitude 10° 19:23:16 10° 24° (NNE) 2,034 4.2 -9.4°
Sets 19:26:07 0° 4° (N) 2,950 5.3 -9.8°
